Time,TemperatureF,DewpointF,PressureIn,WindDirection,WindDirectionDegrees,WindSpeedMPH,WindSpeedGustMPH,Humidity,HourlyPrecipIn,Conditions,Clouds,dailyrainin,SolarRadiationWatts/m^2,SoftwareType,DateUTC
2013-10-07 00:03:00,60.0,53.0,-100.00,North,354,2.0,6.0,79,0.00,,,-99.99,0.000000,,2013-10-07 05:03:00,
2013-10-07 00:43:00,58.0,53.0,-100.00,NNW,327,1.0,5.0,84,0.00,,,0.03,0.000000,,2013-10-07 05:43:00,
2013-10-07 00:52:00,58.0,53.0,-100.00,NNW,327,1.0,5.0,84,0.00,,,0.03,0.000000,,2013-10-07 05:52:00,
2013-10-07 01:03:00,58.0,53.0,-100.00,NNW,327,1.0,5.0,84,0.00,,,0.03,0.000000,,2013-10-07 06:03:00,
2013-10-07 01:42:00,56.0,53.0,-100.00,NNW,346,0.0,4.0,89,0.00,,,0.03,0.000000,,2013-10-07 06:42:00,
2013-10-07 01:53:00,56.0,53.0,-100.00,NNW,346,0.0,4.0,89,0.00,,,0.03,0.000000,,2013-10-07 06:53:00,
2013-10-07 02:01:00,56.0,53.0,-100.00,NNW,346,0.0,4.0,89,0.00,,,0.03,0.000000,,2013-10-07 07:01:00,
2013-10-07 02:42:00,56.0,53.0,-100.00,NNW,341,2.0,4.0,89,0.00,,,0.03,0.000000,,2013-10-07 07:42:00,
2013-10-07 02:52:00,56.0,53.0,-100.00,NNW,341,2.0,4.0,89,0.00,,,0.03,0.000000,,2013-10-07 07:52:00,
2013-10-07 03:03:00,56.0,53.0,-100.00,NNW,341,2.0,4.0,89,0.00,,,0.03,0.000000,,2013-10-07 08:03:00,
2013-10-07 03:42:00,55.0,52.0,-100.00,NNW,328,0.0,6.0,90,0.00,,,0.03,0.000000,,2013-10-07 08:42:00,
2013-10-07 03:52:00,55.0,52.0,-100.00,NNW,328,0.0,6.0,90,0.00,,,0.03,0.000000,,2013-10-07 08:52:00,
2013-10-07 04:02:00,55.0,52.0,-100.00,NNW,328,0.0,6.0,90,0.00,,,0.03,0.000000,,2013-10-07 09:02:00,
2013-10-07 04:43:00,55.0,51.0,-100.00,NNW,347,3.0,8.0,87,0.00,,,0.03,0.000000,,2013-10-07 09:43:00,
2013-10-07 04:54:00,55.0,51.0,-100.00,NNW,347,3.0,8.0,87,0.00,,,0.03,0.000000,,2013-10-07 09:54:00,
2013-10-07 05:03:00,55.0,51.0,-100.00,NNW,347,3.0,8.0,87,0.00,,,0.03,0.000000,,2013-10-07 10:03:00,
2013-10-07 05:43:00,55.0,52.0,-100.00,North,350,3.0,7.0,88,0.00,,,0.03,0.000000,,2013-10-07 10:43:00,
2013-10-07 05:53:00,55.0,52.0,-100.00,North,350,3.0,7.0,88,0.00,,,0.03,0.000000,,2013-10-07 10:53:00,
2013-10-07 06:02:00,55.0,52.0,-100.00,North,350,3.0,7.0,88,0.00,,,0.03,0.000000,,2013-10-07 11:02:00,
2013-10-07 06:42:00,54.0,51.0,-100.00,North,356,4.0,8.0,88,0.00,,,0.03,0.000000,,2013-10-07 11:42:00,
2013-10-07 06:52:00,54.0,51.0,-100.00,North,356,4.0,8.0,88,0.00,,,0.03,0.000000,,2013-10-07 11:52:00,
2013-10-07 07:02:00,54.0,51.0,-100.00,North,356,4.0,8.0,88,0.00,,,0.03,0.000000,,2013-10-07 12:02:00,
2013-10-07 07:43:00,53.0,50.0,-100.00,North,5,3.0,8.0,89,0.00,,,0.03,1.000000,,2013-10-07 12:43:00,
2013-10-07 07:52:00,53.0,50.0,-100.00,North,5,3.0,8.0,89,0.00,,,0.03,1.000000,,2013-10-07 12:52:00,
2013-10-07 08:02:00,53.0,50.0,-100.00,North,5,3.0,8.0,89,0.00,,,0.03,1.000000,,2013-10-07 13:02:00,
2013-10-07 08:42:00,58.0,52.0,-100.00,NNE,22,3.0,6.0,80,0.00,,,0.03,46.000000,,2013-10-07 13:42:00,
2013-10-07 08:52:00,58.0,52.0,-100.00,NNE,22,3.0,6.0,80,0.00,,,0.03,46.000000,,2013-10-07 13:52:00,
2013-10-07 09:01:00,58.0,52.0,-100.00,NNE,22,3.0,6.0,80,0.00,,,0.03,46.000000,,2013-10-07 14:01:00,
2013-10-07 09:43:00,62.0,52.0,-100.00,NE,44,4.0,10.0,69,0.00,,,0.03,244.000000,,2013-10-07 14:43:00,
2013-10-07 09:52:00,62.0,52.0,-100.00,NE,44,4.0,10.0,69,0.00,,,0.03,244.000000,,2013-10-07 14:52:00,
2013-10-07 10:01:00,62.0,52.0,-100.00,NE,44,4.0,10.0,69,0.00,,,0.03,244.000000,,2013-10-07 15:01:00,
2013-10-07 10:43:00,67.0,52.0,-100.00,NNE,30,5.0,12.0,58,0.00,,,0.01,415.000000,,2013-10-07 15:43:00,
2013-10-07 10:53:00,67.0,52.0,-100.00,NNE,30,5.0,12.0,58,0.00,,,0.01,415.000000,,2013-10-07 15:53:00,
2013-10-07 11:03:00,67.0,52.0,-100.00,NNE,30,5.0,12.0,58,0.00,,,0.01,415.000000,,2013-10-07 16:03:00,
2013-10-07 11:43:00,69.0,51.0,-100.00,NNE,21,6.0,14.0,53,0.00,,,0.00,550.000000,,2013-10-07 16:43:00,
2013-10-07 11:53:00,69.0,51.0,-100.00,NNE,21,6.0,14.0,53,0.00,,,0.00,550.000000,,2013-10-07 16:53:00,
2013-10-07 12:03:00,69.0,51.0,-100.00,NNE,21,6.0,14.0,53,0.00,,,0.00,550.000000,,2013-10-07 17:03:00,
2013-10-07 12:42:00,72.0,51.0,-100.00,NNE,26,5.0,15.0,47,0.00,,,0.00,641.000000,,2013-10-07 17:42:00,
2013-10-07 12:53:00,72.0,51.0,-100.00,NNE,26,5.0,15.0,47,0.00,,,0.00,641.000000,,2013-10-07 17:53:00,
2013-10-07 13:02:00,72.0,51.0,-100.00,NNE,26,5.0,15.0,47,0.00,,,0.00,641.000000,,2013-10-07 18:02:00,
2013-10-07 13:42:00,72.0,52.0,-100.00,NNE,22,6.0,14.0,49,0.00,,,0.00,683.000000,,2013-10-07 18:42:00,
2013-10-07 13:52:00,72.0,52.0,-100.00,NNE,22,6.0,14.0,49,0.00,,,0.00,683.000000,,2013-10-07 18:52:00,
2013-10-07 14:02:00,72.0,52.0,-100.00,NNE,22,6.0,14.0,49,0.00,,,0.00,683.000000,,2013-10-07 19:02:00,
2013-10-07 14:42:00,74.0,53.0,-100.00,North,351,4.0,12.0,48,0.00,,,0.00,668.000000,,2013-10-07 19:42:00,
2013-10-07 14:53:00,74.0,53.0,-100.00,North,351,4.0,12.0,48,0.00,,,0.00,668.000000,,2013-10-07 19:53:00,
2013-10-07 15:02:00,74.0,53.0,-100.00,North,351,4.0,12.0,48,0.00,,,0.00,668.000000,,2013-10-07 20:02:00,
2013-10-07 15:43:00,75.0,53.0,-100.00,North,5,5.0,13.0,47,0.00,,,0.00,598.000000,,2013-10-07 20:43:00,
2013-10-07 15:52:00,75.0,53.0,-100.00,North,5,5.0,13.0,47,0.00,,,0.00,598.000000,,2013-10-07 20:52:00,
2013-10-07 16:02:00,75.0,53.0,-100.00,North,5,5.0,13.0,47,0.00,,,0.00,598.000000,,2013-10-07 21:02:00,
2013-10-07 16:43:00,75.0,53.0,-100.00,North,5,4.0,11.0,47,0.00,,,0.00,479.000000,,2013-10-07 21:43:00,
2013-10-07 16:55:00,75.0,53.0,-100.00,North,5,4.0,11.0,47,0.00,,,0.00,479.000000,,2013-10-07 21:55:00,
2013-10-07 17:04:00,75.0,53.0,-100.00,North,5,4.0,11.0,47,0.00,,,0.00,479.000000,,2013-10-07 22:04:00,
2013-10-07 17:43:00,73.0,54.0,-100.00,North,9,4.0,9.0,51,0.00,,,0.00,322.000000,,2013-10-07 22:43:00,
2013-10-07 17:53:00,73.0,54.0,-100.00,North,9,4.0,9.0,51,0.00,,,0.00,322.000000,,2013-10-07 22:53:00,
2013-10-07 18:02:00,73.0,54.0,-100.00,North,9,4.0,9.0,51,0.00,,,0.00,322.000000,,2013-10-07 23:02:00,
2013-10-07 18:42:00,68.0,55.0,-100.00,NNW,347,1.0,8.0,64,0.00,,,0.00,43.000000,,2013-10-07 23:42:00,
2013-10-07 18:52:00,68.0,55.0,-100.00,NNW,347,1.0,8.0,64,0.00,,,0.00,43.000000,,2013-10-07 23:52:00,
2013-10-07 19:02:00,68.0,55.0,-100.00,NNW,347,1.0,8.0,64,0.00,,,0.00,43.000000,,2013-10-08 00:02:00,
2013-10-07 19:42:00,62.0,56.0,-100.00,NW,318,0.0,4.0,81,0.00,,,0.00,5.000000,,2013-10-08 00:42:00,
2013-10-07 19:52:00,62.0,56.0,-100.00,NW,318,0.0,4.0,81,0.00,,,0.00,5.000000,,2013-10-08 00:52:00,
2013-10-07 20:02:00,62.0,56.0,-100.00,NW,318,0.0,4.0,81,0.00,,,0.00,5.000000,,2013-10-08 01:02:00,
2013-10-07 20:42:00,61.0,54.0,-100.00,NNW,348,0.0,2.0,79,0.00,,,0.00,0.000000,,2013-10-08 01:42:00,
2013-10-07 20:52:00,61.0,54.0,-100.00,NNW,348,0.0,2.0,79,0.00,,,0.00,0.000000,,2013-10-08 01:52:00,
2013-10-07 21:03:00,61.0,54.0,-100.00,NNW,348,0.0,2.0,79,0.00,,,0.00,0.000000,,2013-10-08 02:03:00,
2013-10-07 21:42:00,60.0,54.0,-100.00,NNW,345,2.0,5.0,80,0.00,,,0.00,0.000000,,2013-10-08 02:42:00,
2013-10-07 21:52:00,60.0,54.0,-100.00,NNW,345,2.0,5.0,80,0.00,,,0.00,0.000000,,2013-10-08 02:52:00,
2013-10-07 22:02:00,60.0,54.0,-100.00,NNW,345,2.0,5.0,80,0.00,,,0.00,0.000000,,2013-10-08 03:02:00,
2013-10-07 22:44:00,59.0,54.0,-100.00,NNW,343,1.0,5.0,82,0.00,,,0.00,0.000000,,2013-10-08 03:44:00,
2013-10-07 22:55:00,59.0,54.0,-100.00,NNW,343,1.0,5.0,82,0.00,,,0.00,0.000000,,2013-10-08 03:55:00,
2013-10-07 23:04:00,59.0,54.0,-100.00,NNW,343,1.0,5.0,82,0.00,,,0.00,0.000000,,2013-10-08 04:04:00,
2013-10-07 23:43:00,58.0,54.0,-100.00,NNW,345,2.0,6.0,85,0.00,,,0.00,0.000000,,2013-10-08 04:43:00,
2013-10-07 23:53:00,58.0,54.0,-100.00,NNW,345,2.0,6.0,85,0.00,,,0.00,0.000000,,2013-10-08 04:53:00,